Time,TemperatureF,DewpointF,PressureIn,WindDirection,WindDirectionDegrees,WindSpeedMPH,WindSpeedGustMPH,Humidity,HourlyPrecipIn,Conditions,Clouds,dailyrainin,SoftwareType,DateUTC
2013-02-21 00:03:00,20.6,18.6,30.35,West,279,0.0,0.0,92,0.00,,,0.00,Wunderground v.1.15,2013-02-21 06:03:00,
2013-02-21 00:08:00,20.8,19.1,30.35,East,96,0.0,0.0,93,0.00,,,0.00,Wunderground v.1.15,2013-02-21 06:08:00,
2013-02-21 00:13:00,21.1,19.4,30.34,East,84,0.0,0.0,93,0.00,,,0.00,Wunderground v.1.15,2013-02-21 06:13:00,
2013-02-21 00:19:00,21.6,19.9,30.34,East,83,0.0,0.0,93,0.00,,,0.00,Wunderground v.1.15,2013-02-21 06:19:00,
2013-02-21 00:24:00,21.6,19.6,30.35,East,83,0.0,0.0,92,0.00,,,0.00,Wunderground v.1.15,2013-02-21 06:24:00,
2013-02-21 00:29:00,21.5,19.5,30.35,East,83,0.0,0.0,92,0.00,,,0.00,Wunderground v.1.15,2013-02-21 06:29:00,
2013-02-21 00:34:00,21.3,19.1,30.35,East,84,0.0,0.0,91,0.00,,,0.00,Wunderground v.1.15,2013-02-21 06:34:00,
2013-02-21 00:39:00,21.3,19.3,30.35,East,83,0.0,0.0,92,0.00,,,0.00,Wunderground v.1.15,2013-02-21 06:39:00,
2013-02-21 00:45:00,21.2,19.2,30.35,East,83,0.0,0.0,92,0.00,,,0.00,Wunderground v.1.15,2013-02-21 06:45:00,
2013-02-21 00:50:00,21.0,19.0,30.35,East,83,0.0,0.0,92,0.00,,,0.00,Wunderground v.1.15,2013-02-21 06:50:00,
2013-02-21 00:55:00,20.8,18.8,30.35,East,83,0.0,0.0,92,0.00,,,0.00,Wunderground v.1.15,2013-02-21 06:55:00,
2013-02-21 01:00:00,20.8,18.8,30.35,East,83,0.0,0.0,92,0.00,,,0.00,Wunderground v.1.15,2013-02-21 07:00:00,
2013-02-21 01:06:00,21.3,19.6,30.35,East,83,0.0,0.0,93,0.00,,,0.00,Wunderground v.1.15,2013-02-21 07:06:00,
2013-02-21 01:11:00,21.6,19.6,30.35,ENE,73,0.0,0.0,92,0.00,,,0.00,Wunderground v.1.15,2013-02-21 07:11:00,
2013-02-21 01:16:00,21.8,19.8,30.35,ENE,71,0.0,0.0,92,0.00,,,0.00,Wunderground v.1.15,2013-02-21 07:16:00,
2013-02-21 01:22:00,22.0,19.8,30.35,ENE,69,0.0,0.0,91,0.00,,,0.00,Wunderground v.1.15,2013-02-21 07:22:00,
2013-02-21 01:27:00,21.9,19.4,30.35,ENE,70,0.0,0.0,90,0.00,,,0.00,Wunderground v.1.15,2013-02-21 07:27:00,
2013-02-21 01:32:00,22.0,19.8,30.35,ENE,70,0.0,0.0,91,0.00,,,0.00,Wunderground v.1.15,2013-02-21 07:32:00,
2013-02-21 01:37:00,21.8,19.3,30.35,ENE,69,0.0,0.0,90,0.00,,,0.00,Wunderground v.1.15,2013-02-21 07:37:00,
2013-02-21 01:42:00,21.5,19.0,30.35,ENE,69,0.0,0.0,90,0.00,,,0.00,Wunderground v.1.15,2013-02-21 07:42:00,
2013-02-21 01:47:00,21.4,19.2,30.35,ENE,70,0.0,0.0,91,0.00,,,0.00,Wunderground v.1.15,2013-02-21 07:47:00,
2013-02-21 01:53:00,21.6,19.1,30.35,ENE,69,0.0,0.0,90,0.00,,,0.00,Wunderground v.1.15,2013-02-21 07:53:00,
2013-02-21 01:58:00,21.8,19.3,30.34,ENE,69,0.0,0.0,90,0.00,,,0.00,Wunderground v.1.15,2013-02-21 07:58:00,
2013-02-21 02:04:00,21.7,19.2,30.34,ENE,71,0.0,0.0,90,0.00,,,0.00,Wunderground v.1.15,2013-02-21 08:04:00,
2013-02-21 02:09:00,21.7,19.2,30.34,ENE,70,0.0,0.0,90,0.00,,,0.00,Wunderground v.1.15,2013-02-21 08:09:00,
2013-02-21 02:14:00,21.6,19.1,30.35,ENE,69,0.0,0.0,90,0.00,,,0.00,Wunderground v.1.15,2013-02-21 08:14:00,
2013-02-21 02:20:00,21.2,18.7,30.35,ENE,70,0.0,0.0,90,0.00,,,0.00,Wunderground v.1.15,2013-02-21 08:20:00,
2013-02-21 02:25:00,21.1,18.6,30.35,ENE,69,0.0,0.0,90,0.00,,,0.00,Wunderground v.1.15,2013-02-21 08:25:00,
2013-02-21 02:30:00,20.9,18.7,30.35,ENE,71,0.0,0.0,91,0.00,,,0.00,Wunderground v.1.15,2013-02-21 08:30:00,
2013-02-21 02:35:00,21.0,18.8,30.34,NNE,33,0.0,1.0,91,0.00,,,0.00,Wunderground v.1.15,2013-02-21 08:35:00,
2013-02-21 02:40:00,21.2,19.0,30.34,NE,39,0.0,1.0,91,0.00,,,0.00,Wunderground v.1.15,2013-02-21 08:40:00,
2013-02-21 02:46:00,21.5,19.3,30.34,NE,39,0.0,1.0,91,0.00,,,0.00,Wunderground v.1.15,2013-02-21 08:46:00,
2013-02-21 02:51:00,21.7,19.5,30.34,NE,39,0.0,1.0,91,0.00,,,0.00,Wunderground v.1.15,2013-02-21 08:51:00,
2013-02-21 02:56:00,22.0,19.5,30.34,ENE,61,0.0,1.0,90,0.00,,,0.00,Wunderground v.1.15,2013-02-21 08:56:00,
2013-02-21 03:02:00,22.2,19.7,30.33,NE,39,1.0,2.0,90,0.00,,,0.00,Wunderground v.1.15,2013-02-21 09:02:00,
2013-02-21 03:07:00,22.3,19.6,30.34,NE,37,1.0,2.0,89,0.00,,,0.00,Wunderground v.1.15,2013-02-21 09:07:00,
2013-02-21 03:12:00,22.1,19.4,30.34,NE,37,1.0,1.0,89,0.00,,,0.00,Wunderground v.1.15,2013-02-21 09:12:00,
2013-02-21 03:17:00,22.2,19.5,30.33,NE,41,0.0,1.0,89,0.00,,,0.00,Wunderground v.1.15,2013-02-21 09:17:00,
2013-02-21 03:22:00,22.3,19.6,30.33,NE,44,1.0,2.0,89,0.00,,,0.00,Wunderground v.1.15,2013-02-21 09:22:00,
2013-02-21 03:27:00,22.4,19.6,30.33,ENE,61,1.0,2.0,89,0.00,,,0.00,Wunderground v.1.15,2013-02-21 09:27:00,
2013-02-21 03:33:00,22.6,19.6,30.33,ENE,62,1.0,2.0,88,0.00,,,0.00,Wunderground v.1.15,2013-02-21 09:33:00,
2013-02-21 03:38:00,22.7,19.7,30.33,ENE,67,2.0,2.0,88,0.00,,,0.00,Wunderground v.1.15,2013-02-21 09:38:00,
2013-02-21 03:43:00,22.8,19.5,30.33,East,83,1.0,2.0,87,0.00,,,0.00,Wunderground v.1.15,2013-02-21 09:43:00,
2013-02-21 03:48:00,22.7,19.4,30.33,East,92,1.0,2.0,87,0.00,,,0.00,Wunderground v.1.15,2013-02-21 09:48:00,
2013-02-21 03:54:00,22.7,19.4,30.33,ENE,71,0.0,0.0,87,0.00,,,0.00,Wunderground v.1.15,2013-02-21 09:54:00,
2013-02-21 03:59:00,22.9,19.6,30.33,NE,54,1.0,2.0,87,0.00,,,0.00,Wunderground v.1.15,2013-02-21 09:59:00,
2013-02-21 04:05:00,23.1,19.8,30.33,East,94,2.0,3.0,87,0.00,,,0.00,Wunderground v.1.15,2013-02-21 10:05:00,
2013-02-21 04:10:00,23.2,19.9,30.33,NE,54,2.0,3.0,87,0.00,,,0.00,Wunderground v.1.15,2013-02-21 10:10:00,
2013-02-21 04:16:00,23.4,20.1,30.32,NE,52,4.0,7.0,87,0.00,,,0.00,Wunderground v.1.15,2013-02-21 10:16:00,
2013-02-21 04:21:00,23.6,20.0,30.32,East,82,5.0,5.0,86,0.00,,,0.00,Wunderground v.1.15,2013-02-21 10:21:00,
2013-02-21 04:26:00,23.6,20.0,30.32,East,98,5.0,5.0,86,0.00,,,0.00,Wunderground v.1.15,2013-02-21 10:26:00,
2013-02-21 04:31:00,23.5,19.7,30.32,ENE,61,4.0,4.0,85,0.00,,,0.00,Wunderground v.1.15,2013-02-21 10:31:00,
2013-02-21 04:36:00,23.6,20.0,30.33,NE,48,3.0,5.0,86,0.00,,,0.00,Wunderground v.1.15,2013-02-21 10:36:00,
2013-02-21 04:42:00,23.5,19.7,30.33,ENE,65,3.0,5.0,85,0.00,,,0.00,Wunderground v.1.15,2013-02-21 10:42:00,
2013-02-21 04:47:00,23.6,20.0,30.32,ENE,72,3.0,6.0,86,0.00,,,0.00,Wunderground v.1.15,2013-02-21 10:47:00,
2013-02-21 04:52:00,23.5,19.7,30.32,East,96,3.0,4.0,85,0.00,,,0.00,Wunderground v.1.15,2013-02-21 10:52:00,
2013-02-21 04:57:00,23.5,19.7,30.32,ESE,110,3.0,4.0,85,0.00,,,0.00,Wunderground v.1.15,2013-02-21 10:57:00,
2013-02-21 05:03:00,23.4,19.6,30.32,ENE,68,2.0,3.0,85,0.00,,,0.00,Wunderground v.1.15,2013-02-21 11:03:00,
2013-02-21 05:09:00,23.2,19.4,30.33,ENE,77,2.0,3.0,85,0.00,,,0.00,Wunderground v.1.15,2013-02-21 11:09:00,
2013-02-21 05:15:00,23.2,19.4,30.33,ESE,108,1.0,4.0,85,0.00,,,0.00,Wunderground v.1.15,2013-02-21 11:15:00,
2013-02-21 05:20:00,23.2,19.4,30.33,East,89,1.0,1.0,85,0.00,,,0.00,Wunderground v.1.15,2013-02-21 11:20:00,
2013-02-21 05:25:00,23.2,19.4,30.33,East,82,1.0,2.0,85,0.00,,,0.00,Wunderground v.1.15,2013-02-21 11:25:00,
2013-02-21 05:31:00,23.3,19.5,30.33,East,94,2.0,2.0,85,0.00,,,0.00,Wunderground v.1.15,2013-02-21 11:31:00,
2013-02-21 05:36:00,23.3,19.5,30.33,East,82,3.0,4.0,85,0.00,,,0.00,Wunderground v.1.15,2013-02-21 11:36:00,
2013-02-21 05:41:00,23.4,19.6,30.33,ENE,73,3.0,4.0,85,0.00,,,0.00,Wunderground v.1.15,2013-02-21 11:41:00,
2013-02-21 05:46:00,23.4,19.6,30.32,ENE,75,4.0,6.0,85,0.00,,,0.00,Wunderground v.1.15,2013-02-21 11:46:00,
2013-02-21 05:52:00,23.3,19.5,30.33,East,89,3.0,4.0,85,0.00,,,0.00,Wunderground v.1.15,2013-02-21 11:52:00,
2013-02-21 05:57:00,23.4,19.6,30.33,ESE,123,3.0,4.0,85,0.00,,,0.00,Wunderground v.1.15,2013-02-21 11:57:00,
2013-02-21 06:02:00,23.3,19.5,30.32,ENE,77,3.0,8.0,85,0.00,,,0.00,Wunderground v.1.15,2013-02-21 12:02:00,
2013-02-21 06:07:00,23.3,19.5,30.32,ENE,61,4.0,8.0,85,0.00,,,0.00,Wunderground v.1.15,2013-02-21 12:07:00,
2013-02-21 06:13:00,23.3,19.5,30.32,SE,145,3.0,4.0,85,0.00,,,0.00,Wunderground v.1.15,2013-02-21 12:13:00,
2013-02-21 06:18:00,23.2,19.4,30.32,ESE,108,3.0,6.0,85,0.00,,,0.00,Wunderground v.1.15,2013-02-21 12:18:00,
2013-02-21 06:23:00,23.1,19.3,30.33,SE,133,2.0,2.0,85,0.00,,,0.00,Wunderground v.1.15,2013-02-21 12:23:00,
2013-02-21 06:28:00,23.1,19.3,30.33,ENE,74,2.0,8.0,85,0.00,,,0.00,Wunderground v.1.15,2013-02-21 12:28:00,
2013-02-21 06:33:00,23.1,19.3,30.33,ESE,103,2.0,2.0,85,0.00,,,0.00,Wunderground v.1.15,2013-02-21 12:33:00,
2013-02-21 06:39:00,23.1,19.3,30.32,East,101,2.0,2.0,85,0.00,,,0.00,Wunderground v.1.15,2013-02-21 12:39:00,
2013-02-21 06:44:00,23.2,19.4,30.32,East,88,2.0,6.0,85,0.00,,,0.00,Wunderground v.1.15,2013-02-21 12:44:00,
2013-02-21 06:50:00,23.3,19.5,30.32,East,84,4.0,6.0,85,0.00,,,0.00,Wunderground v.1.15,2013-02-21 12:50:00,
2013-02-21 06:55:00,23.4,19.6,30.32,East,92,5.0,8.0,85,0.00,,,0.00,Wunderground v.1.15,2013-02-21 12:55:00,
2013-02-21 07:00:00,23.5,19.7,30.31,ENE,69,5.0,5.0,85,0.00,,,0.00,Wunderground v.1.15,2013-02-21 13:00:00,
2013-02-21 07:06:00,23.6,19.8,30.30,East,88,6.0,9.0,85,0.00,,,0.00,Wunderground v.1.15,2013-02-21 13:06:00,
2013-02-21 07:11:00,23.8,19.9,30.31,ENE,61,6.0,6.0,85,0.00,,,0.00,Wunderground v.1.15,2013-02-21 13:11:00,
2013-02-21 07:16:00,23.9,19.8,30.31,ENE,73,6.0,10.0,84,0.00,,,0.00,Wunderground v.1.15,2013-02-21 13:16:00,
2013-02-21 07:22:00,24.0,19.9,30.30,ENE,68,6.0,8.0,84,0.00,,,0.00,Wunderground v.1.15,2013-02-21 13:22:00,
2013-02-21 07:27:00,24.3,19.9,30.30,ENE,68,6.0,8.0,83,0.00,,,0.00,Wunderground v.1.15,2013-02-21 13:27:00,
2013-02-21 07:33:00,24.6,19.9,30.29,ENE,62,4.0,10.0,82,0.00,,,0.00,Wunderground v.1.15,2013-02-21 13:33:00,
2013-02-21 07:38:00,24.8,20.1,30.30,SW,229,4.0,10.0,82,0.00,,,0.00,Wunderground v.1.15,2013-02-21 13:38:00,
2013-02-21 07:43:00,25.1,20.1,30.30,East,94,4.0,6.0,81,0.00,,,0.00,Wunderground v.1.15,2013-02-21 13:43:00,
2013-02-21 07:48:00,25.3,20.3,30.30,East,94,3.0,6.0,81,0.00,,,0.00,Wunderground v.1.15,2013-02-21 13:48:00,
2013-02-21 07:54:00,25.5,20.5,30.32,SE,125,3.0,10.0,81,0.00,,,0.00,Wunderground v.1.15,2013-02-21 13:54:00,
2013-02-21 07:59:00,25.9,20.6,30.33,East,94,3.0,10.0,80,0.00,,,0.00,Wunderground v.1.15,2013-02-21 13:59:00,
2013-02-21 08:04:00,26.2,20.9,30.33,ENE,70,2.0,7.0,80,0.00,,,0.00,Wunderground v.1.15,2013-02-21 14:04:00,
2013-02-21 08:09:00,26.5,21.2,30.33,East,84,3.0,8.0,80,0.00,,,0.00,Wunderground v.1.15,2013-02-21 14:09:00,
2013-02-21 08:15:00,26.4,20.8,30.32,ENE,72,5.0,7.0,79,0.00,,,0.00,Wunderground v.1.15,2013-02-21 14:15:00,
2013-02-21 08:20:00,26.3,20.4,30.32,ENE,71,6.0,9.0,78,0.00,,,0.00,Wunderground v.1.15,2013-02-21 14:20:00,
2013-02-21 08:25:00,26.1,20.2,30.31,East,88,6.0,11.0,78,0.00,,,0.00,Wunderground v.1.15,2013-02-21 14:25:00,
2013-02-21 08:31:00,26.1,19.9,30.32,ENE,67,7.0,11.0,77,0.00,,,0.00,Wunderground v.1.15,2013-02-21 14:31:00,
2013-02-21 08:36:00,26.1,20.2,30.32,ENE,77,6.0,11.0,78,0.00,,,0.00,Wunderground v.1.15,2013-02-21 14:36:00,
2013-02-21 08:41:00,26.1,19.6,30.31,ESE,103,6.0,8.0,76,0.00,,,0.00,Wunderground v.1.15,2013-02-21 14:41:00,
2013-02-21 08:46:00,26.1,19.9,30.31,ENE,72,8.0,9.0,77,0.00,,,0.00,Wunderground v.1.15,2013-02-21 14:46:00,
2013-02-21 08:51:00,26.2,20.6,30.31,ENE,68,6.0,9.0,79,0.00,,,0.00,Wunderground v.1.15,2013-02-21 14:51:00,
2013-02-21 08:56:00,26.3,20.4,30.31,ENE,65,7.0,12.0,78,0.00,,,0.00,Wunderground v.1.15,2013-02-21 14:56:00,
2013-02-21 09:02:00,26.5,20.6,30.30,ENE,58,8.0,15.0,78,0.00,,,0.00,Wunderground v.1.15,2013-02-21 15:02:00,
2013-02-21 09:08:00,26.7,20.8,30.31,ENE,77,9.0,15.0,78,0.00,,,0.00,Wunderground v.1.15,2013-02-21 15:08:00,
2013-02-21 09:13:00,27.1,21.5,30.30,ENE,64,8.0,11.0,79,0.00,,,0.00,Wunderground v.1.15,2013-02-21 15:13:00,
2013-02-21 09:18:00,27.5,21.8,30.31,NE,53,8.0,11.0,79,0.00,,,0.00,Wunderground v.1.15,2013-02-21 15:18:00,
2013-02-21 09:23:00,27.6,21.3,30.30,ENE,70,8.0,11.0,77,0.00,,,0.00,Wunderground v.1.15,2013-02-21 15:23:00,
2013-02-21 09:28:00,27.8,21.2,30.31,ENE,71,8.0,14.0,76,0.00,,,0.00,Wunderground v.1.15,2013-02-21 15:28:00,
2013-02-21 09:33:00,28.3,21.7,30.31,ESE,111,6.0,12.0,76,0.00,,,0.00,Wunderground v.1.15,2013-02-21 15:33:00,
2013-02-21 09:38:00,28.5,22.2,30.31,ENE,72,6.0,12.0,77,0.00,,,0.00,Wunderground v.1.15,2013-02-21 15:38:00,
2013-02-21 09:44:00,28.9,22.6,30.30,ENE,64,7.0,8.0,77,0.00,,,0.00,Wunderground v.1.15,2013-02-21 15:44:00,
2013-02-21 09:50:00,29.2,22.3,30.30,ENE,58,6.0,6.0,75,0.00,,,0.00,Wunderground v.1.15,2013-02-21 15:50:00,
2013-02-21 09:55:00,29.0,22.1,30.30,ENE,63,7.0,8.0,75,0.00,,,0.00,Wunderground v.1.15,2013-02-21 15:55:00,
2013-02-21 10:00:00,29.1,22.2,30.29,NE,56,8.0,10.0,75,0.00,,,0.00,Wunderground v.1.15,2013-02-21 16:00:00,
2013-02-21 10:06:00,28.8,21.2,30.28,East,79,8.0,11.0,73,0.00,,,0.00,Wunderground v.1.15,2013-02-21 16:06:00,
2013-02-21 10:11:00,28.8,22.2,30.28,ENE,61,9.0,10.0,76,0.00,,,0.00,Wunderground v.1.15,2013-02-21 16:11:00,
2013-02-21 10:17:00,28.8,21.9,30.27,ENE,58,9.0,14.0,75,0.00,,,0.00,Wunderground v.1.15,2013-02-21 16:17:00,
2013-02-21 10:22:00,28.7,21.8,30.27,ENE,64,9.0,16.0,75,0.00,,,0.00,Wunderground v.1.15,2013-02-21 16:22:00,
2013-02-21 10:27:00,28.7,21.5,30.27,East,84,8.0,16.0,74,0.00,,,0.00,Wunderground v.1.15,2013-02-21 16:27:00,
2013-02-21 10:32:00,28.8,21.2,30.28,East,89,7.0,8.0,73,0.00,,,0.00,Wunderground v.1.15,2013-02-21 16:32:00,
2013-02-21 10:38:00,28.8,21.2,30.27,East,89,6.0,10.0,73,0.00,,,0.00,Wunderground v.1.15,2013-02-21 16:38:00,
2013-02-21 12:44:00,30.6,23.0,30.12,ESE,111,8.0,10.0,73,0.00,,,0.00,Wunderground v.1.15,2013-02-21 18:44:00,
2013-02-21 12:50:00,30.8,23.2,30.12,SE,124,5.0,5.0,73,0.00,,,0.00,Wunderground v.1.15,2013-02-21 18:50:00,
2013-02-21 12:56:00,30.9,22.9,30.12,ENE,77,4.0,11.0,72,0.00,,,0.00,Wunderground v.1.15,2013-02-21 18:56:00,
2013-02-21 13:02:00,30.8,22.8,30.12,ESE,119,6.0,10.0,72,0.00,,,0.00,Wunderground v.1.15,2013-02-21 19:02:00,
2013-02-21 13:07:00,30.9,23.3,30.11,ENE,60,7.0,11.0,73,0.00,,,0.00,Wunderground v.1.15,2013-02-21 19:07:00,
2013-02-21 13:12:00,30.9,23.3,30.11,ESE,107,8.0,14.0,73,0.00,,,0.00,Wunderground v.1.15,2013-02-21 19:12:00,
2013-02-21 13:17:00,31.0,23.4,30.11,ENE,63,9.0,17.0,73,0.00,,,0.00,Wunderground v.1.15,2013-02-21 19:17:00,
2013-02-21 13:22:00,31.1,23.5,30.11,ENE,72,8.0,12.0,73,0.00,,,0.00,Wunderground v.1.15,2013-02-21 19:22:00,
2013-02-21 13:27:00,31.2,23.9,30.10,ENE,60,9.0,13.0,74,0.00,,,0.00,Wunderground v.1.15,2013-02-21 19:27:00,
2013-02-21 13:33:00,31.3,24.0,30.09,East,94,10.0,15.0,74,0.00,,,0.00,Wunderground v.1.15,2013-02-21 19:33:00,
2013-02-21 13:38:00,31.3,24.3,30.10,ENE,68,9.0,15.0,75,0.00,,,0.00,Wunderground v.1.15,2013-02-21 19:38:00,
2013-02-21 13:43:00,31.3,24.6,30.11,ENE,78,8.0,9.0,76,0.00,,,0.00,Wunderground v.1.15,2013-02-21 19:43:00,
2013-02-21 13:49:00,31.3,25.2,30.12,NE,55,6.0,9.0,78,0.00,,,0.00,Wunderground v.1.15,2013-02-21 19:49:00,
2013-02-21 13:54:00,31.4,25.6,30.13,NE,49,6.0,9.0,79,0.00,,,0.00,Wunderground v.1.15,2013-02-21 19:54:00,
2013-02-21 13:59:00,31.4,25.3,30.13,NE,56,6.0,9.0,78,0.00,,,0.00,Wunderground v.1.15,2013-02-21 19:59:00,
2013-02-21 14:04:00,31.4,25.6,30.14,NE,34,6.0,9.0,79,0.00,,,0.00,Wunderground v.1.15,2013-02-21 20:04:00,
2013-02-21 14:09:00,31.4,25.6,30.14,NE,39,6.0,10.0,79,0.00,,,0.00,Wunderground v.1.15,2013-02-21 20:09:00,
2013-02-21 14:14:00,31.4,25.9,30.13,NE,53,7.0,12.0,80,0.00,,,0.00,Wunderground v.1.15,2013-02-21 20:14:00,
2013-02-21 14:19:00,31.3,26.4,30.14,NE,46,8.0,12.0,82,0.00,,,0.00,Wunderground v.1.15,2013-02-21 20:19:00,
2013-02-21 14:24:00,31.1,26.2,30.14,NE,54,7.0,10.0,82,0.00,,,0.00,Wunderground v.1.15,2013-02-21 20:24:00,
2013-02-21 14:30:00,31.0,26.1,30.16,NNE,27,7.0,7.0,82,0.00,,,0.00,Wunderground v.1.15,2013-02-21 20:30:00,
2013-02-21 14:35:00,31.0,26.4,30.16,NE,45,7.0,8.0,83,0.00,,,0.00,Wunderground v.1.15,2013-02-21 20:35:00,
2013-02-21 14:40:00,30.8,26.2,30.16,NE,45,7.0,7.0,83,0.00,,,0.00,Wunderground v.1.15,2013-02-21 20:40:00,
2013-02-21 14:46:00,30.5,26.2,30.17,NNE,33,7.0,9.0,84,0.00,,,0.00,Wunderground v.1.15,2013-02-21 20:46:00,
2013-02-21 14:51:00,30.2,26.2,30.18,NE,42,6.0,10.0,85,0.00,,,0.00,Wunderground v.1.15,2013-02-21 20:51:00,
2013-02-21 14:57:00,30.0,26.3,30.20,North,9,5.0,10.0,86,0.00,,,0.00,Wunderground v.1.15,2013-02-21 20:57:00,
2013-02-21 15:02:00,29.9,26.5,30.22,NE,43,3.0,4.0,87,0.00,,,0.00,Wunderground v.1.15,2013-02-21 21:02:00,
2013-02-21 15:08:00,29.7,26.3,30.21,NNE,27,3.0,4.0,87,0.00,,,0.00,Wunderground v.1.15,2013-02-21 21:08:00,
2013-02-21 15:13:00,29.5,26.7,30.21,NNE,30,3.0,6.0,89,0.00,,,0.00,Wunderground v.1.15,2013-02-21 21:13:00,
2013-02-21 15:19:00,29.2,26.6,30.20,NE,44,5.0,6.0,90,0.00,,,0.00,Wunderground v.1.15,2013-02-21 21:19:00,
2013-02-21 15:24:00,29.0,26.7,30.19,NNE,23,6.0,8.0,91,0.00,,,0.00,Wunderground v.1.15,2013-02-21 21:24:00,
2013-02-21 15:29:00,28.8,26.8,30.19,NE,53,6.0,8.0,92,0.00,,,0.00,Wunderground v.1.15,2013-02-21 21:29:00,
2013-02-21 15:35:00,28.8,27.0,30.18,NE,46,6.0,7.0,93,0.00,,,0.00,Wunderground v.1.15,2013-02-21 21:35:00,
2013-02-21 15:40:00,28.7,27.2,30.18,NE,37,6.0,9.0,94,0.00,,,0.00,Wunderground v.1.15,2013-02-21 21:40:00,
2013-02-21 15:45:00,28.6,27.1,30.16,ENE,58,7.0,12.0,94,0.00,,,0.00,Wunderground v.1.15,2013-02-21 21:45:00,
2013-02-21 15:51:00,28.6,27.1,30.16,NE,56,8.0,9.0,94,0.00,,,0.00,Wunderground v.1.15,2013-02-21 21:51:00,
2013-02-21 15:56:00,28.6,27.4,30.16,ENE,60,7.0,9.0,95,0.00,,,0.00,Wunderground v.1.15,2013-02-21 21:56:00,
2013-02-21 16:02:00,28.5,27.3,30.15,NE,55,8.0,11.0,95,0.00,,,0.00,Wunderground v.1.15,2013-02-21 22:02:00,
2013-02-21 16:07:00,28.6,27.4,30.14,ENE,63,8.0,11.0,95,0.00,,,0.00,Wunderground v.1.15,2013-02-21 22:07:00,
2013-02-21 16:13:00,28.6,27.4,30.13,NE,52,9.0,13.0,95,0.00,,,0.00,Wunderground v.1.15,2013-02-21 22:13:00,
2013-02-21 16:18:00,28.6,27.4,30.12,ENE,63,9.0,13.0,95,0.00,,,0.00,Wunderground v.1.15,2013-02-21 22:18:00,
2013-02-21 16:23:00,28.6,27.4,30.12,ENE,72,9.0,14.0,95,0.00,,,0.00,Wunderground v.1.15,2013-02-21 22:23:00,
2013-02-21 16:29:00,28.7,27.4,30.11,ENE,72,10.0,14.0,95,0.00,,,0.00,Wunderground v.1.15,2013-02-21 22:29:00,
2013-02-21 16:34:00,28.8,27.5,30.10,ENE,72,10.0,11.0,95,0.00,,,0.00,Wunderground v.1.15,2013-02-21 22:34:00,
2013-02-21 16:39:00,28.8,27.5,30.08,ENE,66,10.0,14.0,95,0.00,,,0.00,Wunderground v.1.15,2013-02-21 22:39:00,
2013-02-21 16:45:00,28.9,27.6,30.07,ENE,65,11.0,15.0,95,0.00,,,0.00,Wunderground v.1.15,2013-02-21 22:45:00,
2013-02-21 16:51:00,29.0,27.7,30.07,NE,51,12.0,12.0,95,0.00,,,0.00,Wunderground v.1.15,2013-02-21 22:51:00,
2013-02-21 16:56:00,29.2,28.2,30.06,ENE,65,13.0,16.0,96,0.00,,,0.00,Wunderground v.1.15,2013-02-21 22:56:00,
2013-02-21 17:02:00,29.4,28.4,30.05,ENE,63,12.0,12.0,96,0.00,,,0.00,Wunderground v.1.15,2013-02-21 23:02:00,
2013-02-21 17:07:00,29.7,28.7,30.04,East,81,10.0,17.0,96,0.00,,,0.00,Wunderground v.1.15,2013-02-21 23:07:00,
2013-02-21 17:13:00,29.8,28.5,30.04,NE,54,10.0,16.0,95,0.00,,,0.00,Wunderground v.1.15,2013-02-21 23:13:00,
2013-02-21 17:18:00,30.1,28.8,30.04,ENE,58,10.0,16.0,95,0.00,,,0.00,Wunderground v.1.15,2013-02-21 23:18:00,
2013-02-21 17:24:00,30.2,28.9,30.03,ENE,74,9.0,10.0,95,0.00,,,0.00,Wunderground v.1.15,2013-02-21 23:24:00,
2013-02-21 17:29:00,30.3,29.0,30.03,East,83,8.0,10.0,95,0.00,,,0.00,Wunderground v.1.15,2013-02-21 23:29:00,
2013-02-21 17:34:00,30.4,29.1,30.02,ENE,67,8.0,12.0,95,0.00,,,0.00,Wunderground v.1.15,2013-02-21 23:34:00,
2013-02-21 17:40:00,30.6,29.3,29.99,East,94,9.0,14.0,95,0.00,,,0.00,Wunderground v.1.15,2013-02-21 23:40:00,
2013-02-21 17:45:00,30.7,29.4,29.98,ENE,66,11.0,17.0,95,0.00,,,0.00,Wunderground v.1.15,2013-02-21 23:45:00,
2013-02-21 17:50:00,30.9,29.6,29.98,ENE,65,11.0,19.0,95,0.00,,,0.00,Wunderground v.1.15,2013-02-21 23:50:00,
2013-02-21 17:56:00,31.0,29.7,29.98,ENE,72,10.0,19.0,95,0.00,,,0.00,Wunderground v.1.15,2013-02-21 23:56:00,
2013-02-21 18:02:00,31.0,29.7,29.98,ENE,75,8.0,11.0,95,0.00,,,0.00,Wunderground v.1.15,2013-02-22 00:02:00,
2013-02-21 18:07:00,31.0,29.7,29.98,ENE,67,9.0,12.0,95,0.00,,,0.00,Wunderground v.1.15,2013-02-22 00:07:00,
2013-02-21 18:12:00,31.2,29.9,29.98,ENE,64,10.0,10.0,95,0.00,,,0.00,Wunderground v.1.15,2013-02-22 00:12:00,
2013-02-21 18:17:00,31.2,29.9,29.96,SE,127,9.0,10.0,95,0.00,,,0.00,Wunderground v.1.15,2013-02-22 00:17:00,
2013-02-21 18:23:00,31.3,29.8,29.95,ENE,68,9.0,18.0,94,0.00,,,0.00,Wunderground v.1.15,2013-02-22 00:23:00,
2013-02-21 18:28:00,31.4,29.9,29.95,NE,55,8.0,18.0,94,0.00,,,0.00,Wunderground v.1.15,2013-02-22 00:28:00,
2013-02-21 18:34:00,31.4,29.9,29.94,ENE,66,9.0,14.0,94,0.00,,,0.00,Wunderground v.1.15,2013-02-22 00:34:00,
2013-02-21 18:39:00,31.5,30.0,29.94,NE,49,10.0,18.0,94,0.00,,,0.00,Wunderground v.1.15,2013-02-22 00:39:00,
2013-02-21 18:45:00,31.6,30.1,29.95,SE,134,9.0,10.0,94,0.00,,,0.00,Wunderground v.1.15,2013-02-22 00:45:00,
2013-02-21 18:51:00,31.7,29.9,29.94,ENE,75,9.0,9.0,93,0.00,,,0.00,Wunderground v.1.15,2013-02-22 00:51:00,
2013-02-21 18:56:00,31.8,30.0,29.95,East,83,9.0,9.0,93,0.00,,,0.00,Wunderground v.1.15,2013-02-22 00:56:00,
2013-02-21 19:02:00,31.8,30.0,29.95,East,98,7.0,12.0,93,0.00,,,0.00,Wunderground v.1.15,2013-02-22 01:02:00,
2013-02-21 19:07:00,31.8,30.0,29.93,East,83,6.0,12.0,93,0.00,,,0.00,Wunderground v.1.15,2013-02-22 01:07:00,
2013-02-21 19:12:00,31.8,30.0,29.94,NE,54,6.0,6.0,93,0.00,,,0.00,Wunderground v.1.15,2013-02-22 01:12:00,
2013-02-21 19:17:00,31.9,30.1,29.94,ENE,74,5.0,9.0,93,0.00,,,0.00,Wunderground v.1.15,2013-02-22 01:17:00,
2013-02-21 19:23:00,32.0,30.2,29.95,East,86,6.0,11.0,93,0.00,,,0.00,Wunderground v.1.15,2013-02-22 01:23:00,
2013-02-21 19:28:00,32.1,30.3,29.94,East,89,6.0,11.0,93,0.00,,,0.00,Wunderground v.1.15,2013-02-22 01:28:00,
2013-02-21 19:33:00,32.1,30.0,29.94,ENE,74,7.0,9.0,92,0.00,,,0.00,Wunderground v.1.15,2013-02-22 01:33:00,
2013-02-21 19:39:00,32.2,30.1,29.94,East,88,7.0,10.0,92,0.00,,,0.00,Wunderground v.1.15,2013-02-22 01:39:00,
2013-02-21 19:44:00,32.3,30.5,29.93,ESE,115,6.0,7.0,93,0.00,,,0.00,Wunderground v.1.15,2013-02-22 01:44:00,
2013-02-21 19:49:00,32.4,30.6,29.94,ESE,105,5.0,10.0,93,0.00,,,0.00,Wunderground v.1.15,2013-02-22 01:49:00,
2013-02-21 19:55:00,32.5,30.7,29.95,ESE,102,4.0,5.0,93,0.00,,,0.00,Wunderground v.1.15,2013-02-22 01:55:00,
2013-02-21 20:00:00,32.5,30.7,29.95,ESE,108,5.0,5.0,93,0.00,,,0.00,Wunderground v.1.15,2013-02-22 02:00:00,
2013-02-21 20:06:00,32.6,30.8,29.97,ESE,120,4.0,7.0,93,0.00,,,0.00,Wunderground v.1.15,2013-02-22 02:06:00,
2013-02-21 20:11:00,32.7,30.9,29.96,SE,139,4.0,5.0,93,0.00,,,0.00,Wunderground v.1.15,2013-02-22 02:11:00,
2013-02-21 20:16:00,32.8,31.3,29.96,ESE,111,4.0,8.0,94,0.00,,,0.00,Wunderground v.1.15,2013-02-22 02:16:00,
2013-02-21 20:22:00,32.8,31.3,29.95,ESE,108,5.0,10.0,94,0.00,,,0.00,Wunderground v.1.15,2013-02-22 02:22:00,
2013-02-21 20:27:00,32.8,31.3,29.94,ESE,119,6.0,10.0,94,0.00,,,0.00,Wunderground v.1.15,2013-02-22 02:27:00,
2013-02-21 20:33:00,32.9,31.4,29.95,East,89,4.0,5.0,94,0.00,,,0.00,Wunderground v.1.15,2013-02-22 02:33:00,
2013-02-21 20:38:00,32.9,31.4,29.97,ESE,112,3.0,5.0,94,0.00,,,0.00,Wunderground v.1.15,2013-02-22 02:38:00,
2013-02-21 20:44:00,33.0,31.5,29.98,SE,146,3.0,10.0,94,0.00,,,0.00,Wunderground v.1.15,2013-02-22 02:44:00,
2013-02-21 20:49:00,33.1,31.6,29.96,ENE,68,4.0,10.0,94,0.00,,,0.00,Wunderground v.1.15,2013-02-22 02:49:00,
2013-02-21 20:54:00,33.1,31.6,29.96,ESE,107,4.0,4.0,94,0.00,,,0.00,Wunderground v.1.15,2013-02-22 02:54:00,
2013-02-21 21:00:00,33.1,31.6,29.96,East,98,3.0,7.0,94,0.00,,,0.00,Wunderground v.1.15,2013-02-22 03:00:00,
2013-02-21 21:06:00,33.2,31.7,29.96,East,86,3.0,7.0,94,0.00,,,0.00,Wunderground v.1.15,2013-02-22 03:06:00,
2013-02-21 21:11:00,33.1,31.6,29.94,ESE,103,3.0,6.0,94,0.00,,,0.00,Wunderground v.1.15,2013-02-22 03:11:00,
2013-02-21 21:16:00,33.1,31.6,29.94,ESE,108,4.0,6.0,94,0.00,,,0.00,Wunderground v.1.15,2013-02-22 03:16:00,
2013-02-21 21:22:00,33.1,31.6,29.93,ESE,107,3.0,4.0,94,0.00,,,0.00,Wunderground v.1.15,2013-02-22 03:22:00,
2013-02-21 21:27:00,33.1,31.6,29.93,SE,143,3.0,6.0,94,0.00,,,0.00,Wunderground v.1.15,2013-02-22 03:27:00,
2013-02-21 21:32:00,33.1,31.8,29.92,East,90,4.0,10.0,95,0.00,,,0.00,Wunderground v.1.15,2013-02-22 03:32:00,
2013-02-21 21:38:00,33.2,31.9,29.91,ESE,121,4.0,10.0,95,0.00,,,0.00,Wunderground v.1.15,2013-02-22 03:38:00,
2013-02-21 21:43:00,33.2,31.9,29.90,ENE,62,4.0,6.0,95,0.00,,,0.00,Wunderground v.1.15,2013-02-22 03:43:00,
2013-02-21 21:48:00,33.2,31.9,29.91,ENE,65,5.0,11.0,95,0.00,,,0.00,Wunderground v.1.15,2013-02-22 03:48:00,
2013-02-21 21:54:00,33.3,32.0,29.91,ESE,119,5.0,7.0,95,0.00,,,0.00,Wunderground v.1.15,2013-02-22 03:54:00,
2013-02-21 21:59:00,33.4,32.1,29.90,SE,125,5.0,8.0,95,0.00,,,0.00,Wunderground v.1.15,2013-02-22 03:59:00,
2013-02-21 22:05:00,33.4,32.1,29.90,East,87,4.0,5.0,95,0.00,,,0.00,Wunderground v.1.15,2013-02-22 04:05:00,
2013-02-21 22:10:00,33.4,32.1,29.90,SSE,165,4.0,4.0,95,0.00,,,0.00,Wunderground v.1.15,2013-02-22 04:10:00,
2013-02-21 22:16:00,33.5,32.2,29.89,ESE,122,4.0,9.0,95,0.00,,,0.00,Wunderground v.1.15,2013-02-22 04:16:00,
2013-02-21 22:21:00,33.5,32.2,29.89,South,172,4.0,5.0,95,0.00,,,0.00,Wunderground v.1.15,2013-02-22 04:21:00,
2013-02-21 22:27:00,33.6,32.3,29.89,SE,132,4.0,6.0,95,0.00,,,0.00,Wunderground v.1.15,2013-02-22 04:27:00,
2013-02-21 22:32:00,33.6,32.3,29.89,SE,146,4.0,5.0,95,0.00,,,0.00,Wunderground v.1.15,2013-02-22 04:32:00,
2013-02-21 22:37:00,33.6,32.3,29.89,ESE,113,3.0,5.0,95,0.00,,,0.00,Wunderground v.1.15,2013-02-22 04:37:00,
2013-02-21 22:43:00,33.7,32.4,29.89,ESE,105,3.0,5.0,95,0.00,,,0.00,Wunderground v.1.15,2013-02-22 04:43:00,
2013-02-21 22:48:00,33.7,32.4,29.88,SE,134,3.0,5.0,95,0.00,,,0.00,Wunderground v.1.15,2013-02-22 04:48:00,
2013-02-21 22:53:00,33.8,32.5,29.87,SE,134,4.0,6.0,95,0.00,,,0.00,Wunderground v.1.15,2013-02-22 04:53:00,
2013-02-21 22:58:00,33.9,32.6,29.87,SE,124,4.0,7.0,95,0.00,,,0.00,Wunderground v.1.15,2013-02-22 04:58:00,
2013-02-21 23:00:00,33.9,32.6,29.87,East,91,4.0,4.0,95,0.00,,,0.00,Wunderground v.1.15,2013-02-22 05:00:00,
2013-02-21 23:02:00,34.0,32.7,29.87,ESE,113,4.0,6.0,95,0.00,,,0.00,Wunderground v.1.15,2013-02-22 05:02:00,
2013-02-21 23:05:00,34.0,32.7,29.86,ESE,102,4.0,6.0,95,0.00,,,0.00,Wunderground v.1.15,2013-02-22 05:05:00,
2013-02-21 23:08:00,34.0,32.7,29.86,SE,140,4.0,6.0,95,0.00,,,0.00,Wunderground v.1.15,2013-02-22 05:08:00,
2013-02-21 23:13:00,34.1,32.8,29.87,SE,136,4.0,5.0,95,0.00,,,0.00,Wunderground v.1.15,2013-02-22 05:13:00,
2013-02-21 23:18:00,34.1,32.8,29.88,SSE,148,4.0,6.0,95,0.00,,,0.00,Wunderground v.1.15,2013-02-22 05:18:00,
2013-02-21 23:23:00,34.1,32.8,29.89,SSE,148,2.0,3.0,95,0.00,,,0.00,Wunderground v.1.15,2013-02-22 05:23:00,
2013-02-21 23:29:00,34.1,32.8,29.89,ESE,115,2.0,4.0,95,0.00,,,0.00,Wunderground v.1.15,2013-02-22 05:29:00,
2013-02-21 23:34:00,34.1,32.8,29.88,ESE,108,2.0,2.0,95,0.00,,,0.00,Wunderground v.1.15,2013-02-22 05:34:00,
2013-02-21 23:39:00,34.1,32.8,29.89,SSW,203,1.0,4.0,95,0.00,,,0.00,Wunderground v.1.15,2013-02-22 05:39:00,
2013-02-21 23:44:00,34.1,32.8,29.89,ESE,119,1.0,3.0,95,0.00,,,0.00,Wunderground v.1.15,2013-02-22 05:44:00,
2013-02-21 23:50:00,34.0,32.7,29.88,ESE,108,1.0,1.0,95,0.00,,,0.00,Wunderground v.1.15,2013-02-22 05:50:00,
2013-02-21 23:55:00,34.0,32.7,29.88,ESE,111,1.0,3.0,95,0.00,,,0.00,Wunderground v.1.15,2013-02-22 05:55:00,